Retour au catalogue

COSMOS 1365

ActifMilitaireLEO
NORAD 13175·PAYLOAD·🇷🇺 Russia

Lancé May 14, 1982 depuis Baikonur Cosmodrome

Loading…

Prochains Passages (prochaines 24 heures)

TLE

FraisSource: Space-Track

Époque: Sep 14, 2026, 11:45 UTC

1 13175U 82043A   26257.49013649 -.00000069  00000-0  16738-4 0  9997
2 13175  65.0707 332.4172 0054768 358.2754  13.8224 13.89786685252370

Suivez COSMOS 1365 en temps réel avec AllMySat

Download on the App Store